Date String (YYYY-MM-DD hh:mm:ss) UTC,Instrument flags,absolute air pressure of the measurement (hPa),sample flow rate (lpm),inlet stack bypass flow (lpm),air temperature of the measurement (°C),ambient temperature measured by the external sensor (°C),aerosol sample conditioner tube jacket temperature (°C),OPC LED temperature (°C),internal box temperature (°C),relative humidity of the measurement (%),span deviation,mass concentration of particles derived from Lorenz-Mie calculation of OPC scattering (μg/m³),mass concentration of particles derived from Lorenz-Mie calculation of OPC scattering (μg/m³),mass concentration of particles derived from Lorenz-Mie calculation of OPC scattering (μg/m³)
DateTimeUTC,F1_M11,P_M11,Q1_M11,Q2_M11,T1_M11,T2_M11,T3_M11,T4_M11,T5_M11,U1_M11,ZSPAN_M11,X2_M11,X0_M11,X1_M11
2023-06-15 03:00:00,SystemResetWarning,0824.9,5.00,000.00,029.7,028.3,000.0,038.2,031.3,19.2,0003.2,0004.03,0008.30,0003.83
2023-06-15 03:01:00,SystemResetWarning,0824.9,5.00,000.00,029.8,028.3,000.0,038.3,031.4,19.1,0003.3,0004.12,0008.41,0003.91
2023-06-15 03:02:00,SystemResetWarning,0824.9,5.00,000.00,029.8,028.4,000.0,038.3,031.4,19.2,0003.4,0004.17,0008.47,0003.96
2023-06-15 03:03:00,SystemResetWarning,0824.9,5.01,000.00,029.8,028.4,000.0,038.3,031.4,18.6,0003.7,0004.21,0008.45,0004.00
2023-06-15 03:04:00,SystemResetWarning,0824.9,5.01,000.00,029.8,028.4,000.0,038.3,031.4,18.6,0003.7,0004.22,0007.59,0004.01
2023-06-15 03:05:00,SystemResetWarning,0824.9,5.00,000.00,029.8,028.4,000.0,038.3,031.4,18.5,0003.9,0004.24,0007.52,0004.01
2023-06-15 03:06:00,SystemResetWarning,0824.9,5.00,000.00,029.8,028.4,000.0,038.3,031.3,17.9,0003.9,0004.21,0007.50,0003.98
2023-06-15 03:07:00,SystemResetWarning,0824.9,5.00,000.00,029.8,028.4,000.0,038.3,031.3,17.9,0004.0,0004.21,0007.37,0003.96
2023-06-15 03:08:00,SystemResetWarning,0824.9,5.00,000.00,029.8,028.4,000.0,038.4,031.4,17.7,0004.0,0004.16,0007.24,0003.91
2023-06-15 03:09:00,SystemResetWarning,0824.9,5.00,000.00,029.8,028.4,000.0,038.4,031.3,17.8,0003.9,0004.10,0007.29,0003.83
2023-06-15 03:10:00,SystemResetWarning,0824.9,5.00,000.00,029.8,028.4,000.0,038.4,031.3,17.5,0004.1,0004.05,0007.18,0003.77
2023-06-15 03:11:00,SystemResetWarning,0824.9,5.00,000.00,029.8,028.4,000.0,038.4,031.3,17.6,0004.6,0003.99,0007.63,0003.71
2023-06-15 03:12:00,SystemResetWarning,0824.9,4.99,000.00,029.8,028.4,000.0,038.4,031.4,17.5,0004.7,0003.92,0007.62,0003.64
2023-06-15 03:13:00,SystemResetWarning,0824.9,5.00,000.00,029.8,028.4,000.0,038.4,031.3,17.6,0004.6,0003.82,0007.41,0003.57
2023-06-15 03:14:00,SystemResetWarning,0824.8,5.00,000.00,029.9,028.4,000.0,038.4,031.4,17.6,0004.2,0003.77,0007.34,0003.53
2023-06-15 03:15:00,SystemResetWarning,0824.9,5.00,000.00,029.9,028.4,000.0,038.4,031.4,17.8,0004.0,0003.71,0007.27,0003.46
2023-06-15 03:16:00,SystemResetWarning,0824.9,5.00,000.00,029.9,028.4,000.0,038.4,031.4,17.9,0003.8,0003.62,0006.97,0003.39
2023-06-15 03:17:00,SystemResetWarning,0824.9,4.99,000.00,029.9,028.2,000.0,038.4,031.4,18.0,0003.8,0003.57,0006.72,0003.34
2023-06-15 03:18:00,SystemResetWarning,0824.9,5.01,000.00,029.9,025.9,000.0,038.4,031.3,18.1,0003.6,0003.48,0006.87,0003.26
2023-06-15 03:19:00,SystemResetWarning,0824.9,5.01,000.00,029.8,024.8,000.0,038.3,031.2,17.9,0003.4,0003.38,0006.57,0003.19
2023-06-15 03:20:00,SystemResetWarning,0824.9,5.01,000.00,029.8,025.0,000.0,038.3,031.0,18.3,0003.5,0003.33,0006.15,0003.15
2023-06-15 03:21:00,SystemResetWarning,0824.8,4.99,000.00,029.7,025.3,000.0,038.3,030.9,18.6,0003.3,0003.27,0005.94,0003.11
2023-06-15 03:22:00,SystemResetWarning,0824.9,5.00,000.00,029.6,025.8,000.0,038.2,030.9,18.5,0002.5,0003.21,0004.78,0003.05
2023-06-15 03:23:00,SystemResetWarning,0824.9,5.00,000.00,029.6,026.2,000.0,038.2,030.9,18.4,0002.2,0003.20,0004.73,0002.99
2023-06-15 03:24:00,SystemResetWarning,0824.9,4.98,000.00,029.6,026.5,000.0,038.2,030.9,18.5,0001.4,0003.18,0004.72,0002.94
2023-06-15 03:25:00,SystemResetWarning,0824.9,5.01,000.00,029.5,026.8,000.0,038.2,030.9,19.9,0000.0,0003.16,0004.69,0002.88
2023-06-15 03:26:00,SystemResetWarning,0824.9,5.01,000.00,029.5,027.1,000.0,038.2,031.0,20.4,0000.0,0003.17,0004.77,0002.89
2023-06-15 03:27:00,SystemResetWarning,0824.9,5.00,000.00,029.5,027.3,000.0,038.2,031.0,20.4,0000.0,0003.18,0005.00,0002.87
2023-06-15 03:28:00,SystemResetWarning,0825.0,4.99,000.00,029.6,027.4,000.0,038.2,031.0,20.9,0000.0,0003.17,0005.10,0002.83
2023-06-15 03:29:00,SystemResetWarning,0825.0,4.99,000.00,029.6,027.6,000.0,038.2,031.1,20.9,0000.0,0003.17,0004.91,0002.83
2023-06-15 03:30:00,SystemResetWarning,0825.0,5.00,000.00,029.6,027.7,000.0,038.2,031.1,21.2,0000.0,0003.21,0005.03,0002.84
2023-06-15 03:31:00,SystemResetWarning,0825.1,5.00,000.00,029.6,027.8,000.0,038.2,031.1,19.4,0000.0,0003.22,0005.43,0002.85
2023-06-15 03:32:00,SystemResetWarning,0825.1,5.00,000.00,029.6,027.9,000.0,038.2,031.1,18.9,0000.0,0003.20,0005.48,0002.82
2023-06-15 03:33:00,SystemResetWarning,0825.1,5.00,000.00,029.6,028.0,000.0,038.2,031.2,19.2,0000.0,0003.20,0005.46,0002.80
2023-06-15 03:34:00,SystemResetWarning,0825.1,5.00,000.00,029.7,028.0,000.0,038.2,031.2,20.5,0000.0,0003.16,0005.34,0002.77
2023-06-15 03:35:00,SystemResetWarning,0825.1,5.00,000.00,029.7,028.1,000.0,038.2,031.2,19.9,0000.0,0003.16,0005.35,0002.75
2023-06-15 03:36:00,SystemResetWarning,0825.1,5.00,000.00,029.7,028.1,000.0,038.2,031.3,18.9,0000.0,0003.14,0005.29,0002.70
2023-06-15 03:37:00,SystemResetWarning,0825.1,5.00,000.00,029.7,028.2,000.0,038.2,031.3,19.2,0000.0,0003.07,0005.29,0002.63
2023-06-15 03:38:00,SystemResetWarning,0825.2,5.01,000.00,029.7,028.3,000.0,038.2,031.3,19.1,0000.0,0002.99,0005.28,0002.58
2023-06-15 03:39:00,SystemResetWarning,0825.2,5.00,000.00,029.8,028.3,000.0,038.3,031.3,18.8,0000.0,0002.94,0005.04,0002.55
2023-06-15 03:40:00,SystemResetWarning,0825.2,4.99,000.00,029.8,028.3,000.0,038.3,031.4,18.9,0000.0,0002.92,0005.09,0002.52
2023-06-15 03:41:00,SystemResetWarning,0825.3,4.99,000.00,029.8,028.4,000.0,038.3,031.4,18.7,0000.0,0002.87,0004.93,0002.48
2023-06-15 03:42:00,SystemResetWarning,0825.2,5.00,000.00,029.8,028.4,000.0,038.3,031.4,18.7,0000.0,0002.83,0004.59,0002.44
2023-06-15 03:43:00,SystemResetWarning,0825.3,5.01,000.00,029.9,028.5,000.0,038.3,031.4,18.6,0000.0,0002.88,0004.52,0002.43
2023-06-15 03:44:00,SystemResetWarning,0825.3,5.01,000.00,029.9,028.5,000.0,038.4,031.5,18.6,0000.0,0002.90,0004.61,0002.42
2023-06-15 03:45:00,SystemResetWarning,0825.3,5.00,000.00,029.9,028.5,000.0,038.4,031.5,18.7,0000.0,0002.91,0004.69,0002.41
2023-06-15 03:46:00,SystemResetWarning,0825.4,4.99,000.00,029.9,028.0,000.0,038.4,031.5,18.7,0000.0,0002.88,0004.87,0002.38
2023-06-15 03:47:00,SystemResetWarning,0825.4,4.99,000.00,029.9,025.7,000.0,038.3,031.4,18.9,0000.0,0002.89,0005.28,0002.37
2023-06-15 03:48:00,SystemResetWarning,0825.4,5.01,000.00,029.9,024.9,000.0,038.3,031.3,20.2,0000.0,0002.89,0005.17,0002.36
2023-06-15 03:49:00,SystemResetWarning,0825.4,5.01,000.00,029.8,025.1,000.0,038.2,031.0,21.5,0000.0,0002.93,0004.91,0002.37
2023-06-15 03:50:00,SystemResetWarning,0825.4,4.99,000.00,029.7,025.5,000.0,038.2,031.0,22.9,0000.0,0003.00,0005.10,0002.40
2023-06-15 03:51:00,SystemResetWarning,0825.4,5.00,000.00,029.6,026.0,000.0,038.2,031.0,23.3,0000.0,0003.03,0005.14,0002.43
2023-06-15 03:52:00,SystemResetWarning,0825.4,5.00,000.00,029.6,026.4,000.0,038.2,031.0,23.8,0000.0,0003.10,0005.27,0002.47
2023-06-15 03:53:00,SystemResetWarning,0825.5,4.99,000.00,029.6,026.7,000.0,038.2,031.0,24.1,0000.0,0003.16,0005.45,0002.55
2023-06-15 03:54:00,SystemResetWarning,0825.5,5.00,000.00,029.6,027.0,000.0,038.2,031.0,24.3,0000.0,0003.20,0006.08,0002.61
2023-06-15 03:55:00,SystemResetWarning,0825.6,5.01,000.00,029.6,027.3,000.0,038.2,031.1,24.4,0000.0,0003.23,0007.23,0002.67
2023-06-15 03:56:00,SystemResetWarning,0825.6,4.99,000.00,029.6,027.5,000.0,038.2,031.1,24.7,0000.0,0003.29,0007.44,0002.74
2023-06-15 03:57:00,SystemResetWarning,0825.7,5.00,000.00,029.7,027.7,000.0,038.2,031.2,25.2,0000.0,0003.37,0007.54,0002.82
2023-06-15 03:58:00,SystemResetWarning,0825.7,4.99,000.00,029.7,027.8,000.0,038.2,031.2,25.7,0000.0,0003.41,0007.31,0002.89
2023-06-15 03:59:00,SystemResetWarning,0825.8,5.01,000.00,029.7,028.0,000.0,038.2,031.2,26.3,0000.0,0003.51,0007.58,0002.99
